| time (UTC) | temp F | wind direction | speed MPH | gust MPH | rain 1hr in | rain 24hr in | rain mn in | humidity % | barometer mb |
| 20260504180019 | 76 | 280 | 3.0 | 6.0 | 0.00 | 0.00 | 0.00 | 34 | 1015.1 |
| 20260504174520 | 75 | 262 | 2.0 | 7.0 | 0.00 | 0.00 | 0.00 | 37 | 1015.2 |
| 20260504173030 | 74 | 274 | 1.0 | 7.0 | 0.00 | 0.00 | 0.00 | 36 | 1015.3 |
| 20260504171533 | 75 | 251 | 1.0 | 5.0 | 0.00 | 0.00 | 0.00 | 36 | 1015.4 |
| 20260504081513 | 39 | 168 | 0.0 | 0.0 | 0.00 | 0.00 | 0.00 | 88 | 1016.4 |
| 20260504050016 | 42 | 167 | 0.0 | 0.0 | 0.00 | 0.00 | 0.00 | 84 | 1017.0 |
| 20260504044517 | 42 | 167 | 0.0 | 1.0 | 0.00 | 0.00 | 0.00 | 83 | 1017.0 |
| 20260504043017 | 43 | 236 | 0.0 | 1.0 | 0.00 | 0.00 | 0.00 | 82 | 1016.8 |
| 20260504041515 | 44 | 246 | 0.0 | 0.0 | 0.00 | 0.00 | 0.00 | 82 | 1016.5 |
| 20260504040035 | 44 | 246 | 0.0 | 0.0 | 0.00 | 0.00 | 0.00 | 81 | 1016.4 |
| 20260504034518 | 45 | 246 | 0.0 | 0.0 | 0.00 | 0.00 | 0.00 | 80 | 1016.4 |
| 20260504033017 | 45 | 246 | 0.0 | 0.0 | 0.00 | 0.00 | 0.00 | 78 | 1016.6 |
| 20260504031520 | 46 | 246 | 0.0 | 0.0 | 0.00 | 0.00 | 0.00 | 77 | 1016.7 |
| 20260504030017 | 46 | 246 | 0.0 | 0.0 | 0.00 | 0.00 | 0.00 | 76 | 1016.8 |
| 20260504024520 | 47 | 240 | 0.0 | 0.0 | 0.00 | 0.00 | 0.00 | 75 | 1016.8 |
| 20260504023020 | 47 | 240 | 0.0 | 1.0 | 0.00 | 0.00 | 0.00 | 74 | 1016.9 |
| 20260504021520 | 49 | 241 | 0.0 | 0.0 | 0.00 | 0.00 | 0.00 | 71 | 1016.6 |
| 20260504020019 | 50 | 241 | 0.0 | 1.0 | 0.00 | 0.00 | 0.00 | 68 | 1016.5 |
| 20260504014525 | 50 | 241 | 0.0 | 0.0 | 0.00 | 0.00 | 0.00 | 68 | 1016.2 |
| 20260504013019 | 52 | 241 | 0.0 | 0.0 | 0.00 | 0.00 | 0.00 | 63 | 1015.9 |
| 20260504011521 | 53 | 241 | 0.0 | 0.0 | 0.00 | 0.00 | 0.00 | 60 | 1015.9 |
| 20260504010018 | 55 | 241 | 0.0 | 0.0 | 0.00 | 0.00 | 0.00 | 57 | 1015.7 |
| 20260504004528 | 56 | 241 | 0.0 | 0.0 | 0.00 | 0.00 | 0.00 | 55 | 1015.6 |
| 20260504003017 | 57 | 241 | 0.0 | 1.0 | 0.00 | 0.00 | 0.00 | 55 | 1015.4 |
| 20260504001517 | 59 | 240 | 0.0 | 0.0 | 0.00 | 0.00 | 0.00 | 47 | 1015.1 |
| 20260504000020 | 60 | 240 | 0.0 | 1.0 | 0.00 | 0.00 | 0.00 | 44 | 1015.1 |
| 20260503234522 | 60 | 240 | 0.0 | 0.0 | 0.00 | 0.00 | 0.00 | 40 | 1015.0 |
| 20260503233021 | 61 | 240 | 0.0 | 0.0 | 0.00 | 0.00 | 0.00 | 40 | 1014.9 |
| 20260503231520 | 62 | 240 | 0.0 | 1.0 | 0.00 | 0.00 | 0.00 | 39 | 1014.9 |
| 20260503230022 | 63 | 257 | 0.0 | 1.0 | 0.00 | 0.00 | 0.00 | 36 | 1015.0 |
| 20260503224524 | 63 | 257 | 0.0 | 1.0 | 0.00 | 0.00 | 0.00 | 34 | 1015.1 |
| 20260503223021 | 64 | 221 | 1.0 | 2.0 | 0.00 | 0.00 | 0.00 | 32 | 1015.1 |
| 20260503221523 | 64 | 269 | 1.0 | 3.0 | 0.00 | 0.00 | 0.00 | 32 | 1015.2 |
| 20260503220016 | 65 | 243 | 2.0 | 6.0 | 0.00 | 0.00 | 0.00 | 30 | 1015.2 |
| 20260503214517 | 65 | 298 | 0.0 | 1.0 | 0.00 | 0.00 | 0.00 | 34 | 1015.4 |
| 20260503213022 | 65 | 281 | 1.0 | 2.0 | 0.00 | 0.00 | 0.00 | 32 | 1015.5 |
| 20260503211524 | 65 | 229 | 0.0 | 2.0 | 0.00 | 0.00 | 0.00 | 29 | 1015.7 |
| 20260503210025 | 66 | 271 | 1.0 | 2.0 | 0.00 | 0.00 | 0.00 | 29 | 1015.9 |
| 20260503204520 | 65 | 247 | 3.0 | 4.0 | 0.00 | 0.00 | 0.00 | 30 | 1016.0 |
| 20260503203023 | 64 | 225 | 1.0 | 4.0 | 0.00 | 0.00 | 0.00 | 31 | 1016.1 |
| 20260503201525 | 64 | 169 | 0.0 | 6.0 | 0.00 | 0.00 | 0.00 | 31 | 1016.3 |
| 20260503200024 | 63 | 240 | 4.0 | 8.0 | 0.00 | 0.00 | 0.00 | 30 | 1016.6 |
| 20260503194526 | 63 | 262 | 2.0 | 8.0 | 0.00 | 0.00 | 0.00 | 33 | 1016.7 |
| 20260503193034 | 64 | 233 | 2.0 | 7.0 | 0.00 | 0.00 | 0.00 | 31 | 1016.9 |
| 20260503191522 | 64 | 26 | 1.0 | 5.0 | 0.00 | 0.00 | 0.00 | 29 | 1017.0 |
| 20260503190025 | 65 | 276 | 2.0 | 3.0 | 0.00 | 0.00 | 0.00 | 30 | 1017.2 |
| 20260503184527 | 65 | 274 | 0.0 | 3.0 | 0.00 | 0.00 | 0.00 | 28 | 1017.5 |
| 20260503183026 | 65 | 145 | 0.0 | 4.0 | 0.00 | 0.00 | 0.00 | 23 | 1017.8 |
| 20260503181519 | 65 | 272 | 2.0 | 4.0 | 0.00 | 0.00 | 0.00 | 27 | 1017.9 |